Weather Roundup
Issued by NWS Corpus Christi, TX

Home | Current Version | Previous Version | Text Only | Print | Product List | Glossary On
Versions: 1 2 3 4 5 6 7 8 9 10 11 12 13 14 15 16 17 18 19 20 21 22 23 24 25 26 27 28 29 30 31 32 33 34 35 36 37 38 39 40 41 42 43 44 45 46 47 48 49 50
000
ASUS44 KCRP 280510
HRRCRP

SOUTH TEXAS REGIONAL WEATHER ROUNDUP
NATIONAL WEATHER SERVICE CORPUS CHRISTI TX
1200 AM CDT SAT MAR 28 2015


TXZ229>244-280600-
...CORPUS CHRISTI AREA OBSERVATIONS...

CITY           SKY/WX    TMP DP  RH WIND       PRES   REMARKS
CORPUS CHRISTI CLEAR     60  55  83 S8        30.17F
NAS CORPUS CHR CLEAR     62  52  69 S7        30.17F
ROCKPORT         N/A     63  53  70 S6        30.16F
KINGSVILLE NAS   N/A     59  53  80 S8        30.17F
ALICE          CLEAR     58  49  72 S6        30.17S
FALFURRIAS     CLEAR     58  44  61 S3        30.18S
$$

...VICTORIA AREA OBSERVATIONS...

CITY           SKY/WX    TMP DP  RH WIND       PRES   REMARKS
VICTORIA       CLEAR     57  48  72 S8        30.17S
BEEVILLE       FAIR      59  51  76 SW5       30.16F
PLEASANTON     CLEAR     61  40  44 S3        30.16S
SAN ANTONIO    CLEAR     61  41  47 N3        30.15S
$$

...LAREDO AREA OBSERVATIONS...

CITY           SKY/WX    TMP DP  RH WIND       PRES   REMARKS
LAREDO         CLEAR     61  44  53 SE7       30.19S
COTULLA        CLEAR     61  41  47 S5        30.15F
DEL RIO        CLEAR     63  39  41 SE8       30.13S
MCALLEN        CLEAR     59  51  75 SE7       30.22S
HEBBRONVILLE   NOT AVBL
$$

...OTHER TEXAS OBSERVATIONS...

CITY           SKY/WX    TMP DP  RH WIND       PRES   REMARKS
BROWNSVILLE    CLEAR     56  52  86 S3        30.22S
HOUSTON        CLEAR     56  47  71 CALM      30.15S
COL. STATION   CLEAR     60  42  51 NE6       30.16R
AUSTIN         CLEAR     50  44  80 CALM      30.15S
WACO           CLEAR     52  43  71 E6        30.16S
FORT WORTH     MOCLDY    52  39  61 E6        30.16S
WICHITA FALLS  CLEAR     48  41  76 SE8       30.13S
LUBBOCK        CLEAR     55  36  48 SE15      30.10F
EL PASO        CLEAR     65  18  16 S9        30.14S
$$

...MARINE OBSERVATIONS...

STATION/POSITION TIME  SKY/WX   TEMP    WIND        PRES    VSBY  WAVE   SWELL
                                AIR SEA DIR/SP/G                  HT/PER HT/PER
                 (UTC)          (F)     (DEG/KT/KT) (MB)    (MI)  (FT/S) (FT/S)
PORT ARANSAS     0500            68 68  140/  9/ 10 1022.1F
BUOY 90 E PORT A 0500            69 69  220/ 12/ 14 1022.1F         1/ 7
BUOY 45 SE BAFFI 0500            70 71  140/  8/  8 1021.6F         2/ 8   2/ 8
BUOY 200 E PT IS 0500            70 73  360/  8/ 12 1022.0F         5/ 7   5/ 7
BUOY 15 E GALVES 0500            65 64  250/ 14/ 16 1020.5F         2/ 4
$$


USA.gov is the U.S. government's official web portal to all federal, state and local government web resources and services.